Location: Hamayl? Da??
(36.7028°N, 30.1716°E)
Time: 12:38:03
(UTC+00:00)

MOS 1 Rocket - Pass Details

Date: 04 August 2024
Orbit: 612 x 819 km, 97.5° (Epoch: 11 September)

Event Time Altitude Azimuth Distance (km) Brightness Sun altitude
Exits shadow 19:30:50 54° 246° (WSW) 751 3.5 -25.1°
Maximum altitude 19:31:05 55° 260° (W) 743 3.5 -25.2°
Drops below altitude 10° 19:35:16 10° 339° (NNW) 1,975 6.6 -25.7°
Sets 19:37:29 0° 344° (NNW) 2,890 7.5 -26.0°
